Homestead AFB, FL

3:07 PM EST on November 18, 2017 (GMT -0500)
Dade County-Homestead Regional

Weather History for KHST - May, 2014

Change the Weather History Date:

Thursday, May 1, 2014

  Actual Average Record
Temperature  
Mean Temperature 81 °F -  
Max Temperature 87 °F 85 °F 93 °F (1953)
Min Temperature 75 °F 63 °F 52 °F (1943)
Cooling Degree Days 16    
Growing Degree Days 31 (Base 50)    
Moisture  
Dew Point 71 °F    
Average Humidity 71    
Maximum Humidity 82    
Minimum Humidity 62    
Precipitation  
Precipitation 0.00 in - - ()
Sea Level Pressure  
Sea Level Pressure 30.02 in    
Wind  
Wind Speed 9 mph (SE)    
Max Wind Speed 15 mph    
Max Gust Speed 22 mph    
Visibility 10 miles    
Events Rain    
Averages and records for this station are not official NWS values.
T = Trace of Precipitation, MM = Missing Value Source: NWS Daily Summary

Daily Weather History Graph

Daily Weather History Graph

Search for Another Location

Airport or City:

Trip Planner

Search our weather history database for the weather conditions in past years. The results will help you decide how hot, cold, wet, or windy it might be!

Date:

Astronomy

May. 01, 2014 Rise Set
Actual Time 6:45 AM EDT 7:52 PM EDT
Civil Twilight 6:21 AM EDT 8:16 PM EDT
Nautical Twilight 5:52 AM EDT 8:45 PM EDT
Astronomical Twilight 5:23 AM EDT 9:14 PM EDT
Moon 8:37 AM EDT (5/1) 10:18 PM EDT (5/1)
Length of Visible Light 13h 55m
Length of Day
13h 07m
Waxing Crescent, 6% of the Moon is Illuminated
May 1
Waxing Crescent
May 6
First Quarter
May 14
Full
May 21
Last Quarter
May 28
New

Hourly Weather History & Observations

Time (EDT) Temp. Heat Index Dew Point Humidity Pressure Visibility Wind Dir Wind Speed Gust Speed Precip Events Conditions
12:58 AM 79.3 °F - 71.6 °F 77% 30.05 in 10.0 mi East 8.1 mph - N/A   Clear
1:58 AM 77.4 °F - 69.8 °F 77% 30.04 in 10.0 mi East 5.8 mph - N/A   Clear
2:58 AM 78.3 °F - 69.3 °F 74% 30.03 in 10.0 mi ESE 6.9 mph - N/A   Clear
3:58 AM 78.1 °F - 69.8 °F 76% 30.03 in 10.0 mi SE 5.8 mph - N/A   Clear
4:58 AM 79.0 °F - 70.3 °F 75% 30.02 in 10.0 mi SE 9.2 mph - N/A   Clear
5:58 AM 78.8 °F - 69.8 °F 74% 30.01 in 10.0 mi SE 9.2 mph - N/A   Clear
6:58 AM 79.2 °F - 70.0 °F 73% 30.02 in 10.0 mi SE 8.1 mph - N/A   Partly Cloudy
7:58 AM 80.2 °F 83.2 °F 69.4 °F 69% 30.03 in 10.0 mi SE 10.4 mph - N/A   Clear
8:43 AM 80.6 °F 84.6 °F 71.6 °F 74% 30.02 in 10.0 mi SE 9.2 mph - N/A Rain Light Rain
8:53 AM 82.4 °F 86.3 °F 69.8 °F 66% 30.03 in 10.0 mi SE 12.7 mph - N/A   Scattered Clouds
8:58 AM 82.9 °F 87.2 °F 70.7 °F 66% 30.04 in 10.0 mi SE 13.8 mph - 0.00 in   Scattered Clouds
9:58 AM 84.2 °F 89.0 °F 70.9 °F 64% 30.05 in 10.0 mi ESE 12.7 mph - N/A   Partly Cloudy
10:58 AM 84.9 °F 91.1 °F 72.5 °F 66% 30.05 in 10.0 mi SE 12.7 mph - N/A   Partly Cloudy
11:58 AM 84.7 °F 90.7 °F 72.1 °F 66% 30.05 in 10.0 mi SE 12.7 mph 20.7 mph N/A   Partly Cloudy
12:58 PM 86.5 °F 92.9 °F 72.0 °F 62% 30.04 in 10.0 mi SE 15.0 mph - N/A   Partly Cloudy
1:58 PM 85.3 °F 91.5 °F 72.1 °F 65% 30.03 in 10.0 mi SSE 13.8 mph - N/A   Partly Cloudy
2:58 PM 87.3 °F 95.3 °F 73.8 °F 64% 30.01 in 10.0 mi SSE 12.7 mph 21.9 mph N/A   Clear
3:58 PM 86.9 °F 94.5 °F 73.6 °F 64% 29.98 in 10.0 mi SE 13.8 mph - N/A   Partly Cloudy
4:58 PM 84.0 °F 90.8 °F 73.8 °F 71% 29.97 in 10.0 mi SSE 12.7 mph - N/A   Clear
5:58 PM 84.0 °F 90.8 °F 73.6 °F 71% 29.97 in 10.0 mi SE 11.5 mph - N/A   Clear
6:58 PM 82.4 °F 87.9 °F 72.9 °F 73% 29.98 in 10.0 mi SSE 8.1 mph - N/A   Partly Cloudy
7:58 PM 79.9 °F - 71.4 °F 75% 29.99 in 10.0 mi SSE 4.6 mph - N/A   Clear
8:58 PM 77.2 °F - 69.8 °F 78% 30.00 in 10.0 mi SSE 2.3 mph - N/A   Clear
9:58 PM 75.4 °F - 69.6 °F 82% 30.01 in 10.0 mi SSE 2.3 mph - N/A   Clear
10:58 PM 76.8 °F - 68.0 °F 74% 30.01 in 10.0 mi ESE 1.2 mph - N/A   Partly Cloudy
11:58 PM 77.0 °F - 69.1 °F 76% 30.01 in 10.0 mi SE 5.8 mph - N/A   Clear